Date_and_time,latitude,longitude,wind_speed,RelWindDirFrom,WindDirFrom,air_pressure,air_temperature,relative_humidity,Temp,platform_speed_wrt_ground,air_pressure_at_mean_sea_level,platform_orientation
2019-03-04 00:00,50.6304416666667,-96.9807716666667,6.1,9.1,255,992.90,-16.9,61,0.36,0.0,1022.74,90.0
2019-03-04 00:10,50.6304583333333,-96.9807966666667,5.8,8.8,255,992.85,-17.1,61,0.36,0.0,1022.70,90.0
2019-03-04 00:20,50.6304466666667,-96.9807833333333,5.3,7.7,247,992.83,-17.4,61,0.36,0.0,1022.69,90.0
2019-03-04 00:30,50.6304433333333,-96.9807783333333,5.6,7.6,240,992.87,-17.8,62,0.36,0.0,1022.75,90.0
2019-03-04 00:40,50.630445,-96.9807733333333,6.5,9.8,245,992.81,-18.0,63,0.36,0.0,1022.71,90.0
2019-03-04 00:50,50.6304466666667,-96.9807716666667,5.9,8.2,242,992.80,-18.0,64,0.37,0.0,1022.71,90.0
2019-03-04 01:00,50.630445,-96.9807683333333,6.2,7.9,241,992.83,-18.1,65,0.36,0.0,1022.72,90.0
2019-03-04 01:10,50.6304466666667,-96.9807683333333,5.3,8.3,241,992.81,-18.2,65,0.37,0.0,1022.72,90.0
2019-03-04 01:20,50.6304466666667,-96.9807666666667,5.1,7.9,241,992.78,-18.2,65,0.37,0.0,1022.69,90.0
2019-03-04 01:30,50.6304483333333,-96.9807683333333,5.7,8.4,239,992.76,-18.1,66,0.37,0.0,1022.67,90.0
2019-03-04 01:40,50.6304533333333,-96.9807733333333,5.1,7.7,237,992.73,-18.0,67,0.37,0.0,1022.65,90.0
2019-03-04 01:50,50.6304283333333,-96.9807416666667,6.3,9.2,243,992.68,-17.8,68,0.37,0.0,1022.61,90.0
2019-03-04 02:00,50.6304533333333,-96.9807916666667,6.0,9.4,246,992.57,-17.7,69,0.37,0.0,1022.50,299.2
2019-03-04 02:10,50.630455,-96.9807766666667,6.7,10.7,250,992.50,-17.5,70,0.37,0.0,1022.43,299.2
2019-03-04 02:20,50.6304533333333,-96.98077,7.1,10.0,249,992.37,-17.4,70,0.37,0.0,1022.31,299.2
2019-03-04 02:30,50.6304533333333,-96.98077,7.1,10.1,248,992.27,-17.4,71,0.37,0.0,1022.22,299.2
2019-03-04 02:40,50.6304533333333,-96.9807683333333,7.1,9.9,249,992.19,-17.4,72,0.37,0.0,1022.14,299.2
2019-03-04 02:50,50.6304516666667,-96.9807683333333,6.9,9.8,252,992.09,-17.4,73,0.38,0.0,1022.05,299.2
2019-03-04 03:00,50.6304516666667,-96.9807683333333,7.1,10.6,246,992.06,-17.3,74,0.39,0.0,1022.01,360.0
2019-03-04 03:10,50.63045,-96.980785,7.3,11.0,243,991.96,-17.4,74,0.38,0.0,1021.92,360.0
2019-03-04 03:20,50.6304866666667,-96.9808233333333,7.3,10.1,250,991.84,-17.4,74,0.38,0.0,1021.78,360.0
2019-03-04 03:30,50.6304533333333,-96.980775,7.2,10.2,248,991.76,-17.3,74,0.38,0.0,1021.70,360.0
2019-03-04 03:40,50.6304516666667,-96.9807716666667,6.7,9.9,246,991.71,-17.3,74,0.38,0.0,1021.63,360.0
2019-03-04 03:50,50.630455,-96.9807666666667,7.2,10.3,247,991.72,-17.3,75,0.38,0.0,1021.63,360.0
2019-03-04 04:00,50.630455,-96.980765,6.6,9.7,249,991.69,-17.3,75,0.38,0.0,1021.59,360.0
2019-03-04 04:10,50.6304583333333,-96.98077,6.8,9.9,248,991.70,-17.3,75,0.38,0.0,1021.59,360.0
2019-03-04 04:20,50.6304566666667,-96.9807666666667,7.3,11.3,246,991.62,-17.2,75,0.38,0.0,1021.50,360.0
2019-03-04 04:30,50.6304583333333,-96.9807666666667,7.8,10.9,249,991.52,-17.1,75,0.38,0.0,1021.40,360.0
2019-03-04 04:40,50.630455,-96.9807683333333,8.0,12.8,251,991.36,-17.1,74,0.38,0.0,1021.23,360.0
2019-03-04 04:50,50.6304566666667,-96.98077,8.3,12.0,246,991.21,-17.1,74,0.38,0.0,1021.08,360.0
2019-03-04 05:00,50.63042,-96.98076,8.0,12.6,245,991.12,-17.2,74,0.38,0.0,1020.99,143.0
2019-03-04 05:10,50.6304533333333,-96.9807683333333,7.1,10.5,250,991.02,-17.1,75,0.39,0.0,1020.88,143.0
2019-03-04 05:20,50.6304533333333,-96.98077,7.3,11.3,256,990.89,-16.9,74,0.38,0.0,1020.73,143.0
2019-03-04 05:30,50.6304533333333,-96.9807716666667,7.5,10.8,258,990.72,-16.7,74,0.38,0.0,1020.55,143.0
2019-03-04 05:40,50.6304283333333,-96.9807666666667,6.7,10.1,252,990.69,-16.6,73,0.38,0.0,1020.51,143.0
2019-03-04 05:50,50.6304666666667,-96.98077,6.7,10.7,248,990.59,-16.9,74,0.38,0.0,1020.42,143.0
2019-03-04 06:00,50.630455,-96.9807616666667,6.9,9.7,246,990.52,-17.0,74,0.38,0.0,1020.35,90.0
2019-03-04 06:10,50.6304533333333,-96.9807633333333,6.5,9.6,245,990.43,-17.1,75,0.38,0.0,1020.26,90.0
2019-03-04 06:20,50.6304533333333,-96.980765,6.1,8.9,246,990.31,-17.2,75,0.38,0.0,1020.14,90.0
2019-03-04 06:30,50.6304533333333,-96.9807683333333,6.9,9.7,243,990.15,-17.3,75,0.38,0.0,1019.98,90.0
2019-03-04 06:40,50.6304533333333,-96.9807666666667,7.0,11.0,244,989.96,-17.3,75,0.38,0.0,1019.79,90.0
2019-03-04 06:50,50.6304533333333,-96.9807666666667,7.7,12.0,244,989.86,-17.4,75,0.38,0.0,1019.69,90.0
2019-03-04 07:00,50.6304516666667,-96.980765,7.4,11.1,243,989.71,-17.5,75,0.38,0.0,1019.54,90.0
2019-03-04 07:10,50.63046,-96.9807566666667,7.8,11.6,250,989.56,-17.5,74,0.38,0.0,1019.37,90.0
2019-03-04 07:20,50.630455,-96.9807466666667,7.0,10.5,246,989.39,-17.6,73,0.38,0.0,1019.19,90.0
2019-03-04 07:30,50.6304566666667,-96.9807516666667,7.0,11.2,244,989.26,-17.8,73,0.38,0.0,1019.07,90.0
2019-03-04 07:40,50.6304566666667,-96.9807583333333,7.1,10.4,245,989.16,-17.7,72,0.38,0.0,1018.97,90.0
2019-03-04 07:50,50.6304516666667,-96.9807416666667,7.4,10.5,244,989.06,-17.5,71,0.37,0.0,1018.86,90.0
2019-03-04 08:00,50.6304533333333,-96.98078,7.6,11.5,247,989.03,-17.3,71,0.37,0.0,1018.82,327.5
2019-03-04 08:10,50.6304566666667,-96.9807783333333,8.2,11.5,242,988.87,-17.2,70,0.37,0.0,1018.66,327.5
2019-03-04 08:20,50.630455,-96.980775,7.7,12.7,245,988.68,-17.0,70,0.37,0.0,1018.47,327.5
2019-03-04 08:30,50.630465,-96.980785,7.1,12.2,240,988.56,-17.1,70,0.37,0.0,1018.34,327.5
2019-03-04 08:40,50.6304616666667,-96.9807516666667,7.7,11.7,235,988.42,-17.2,71,0.38,0.0,1018.21,327.5
2019-03-04 08:50,50.6304583333333,-96.9807666666667,8.3,11.7,237,988.24,-17.2,72,0.38,0.0,1018.03,327.5
2019-03-04 09:00,50.630445,-96.9807616666667,8.3,14.0,240,988.03,-17.1,72,0.37,0.0,1017.81,360.0
2019-03-04 09:10,50.6304516666667,-96.980765,9.9,14.4,237,987.77,-17.0,71,0.37,0.0,1017.54,360.0
2019-03-04 09:20,50.6304516666667,-96.98077,9.6,13.7,239,987.50,-16.8,73,0.37,0.0,1017.26,360.0
2019-03-04 09:30,50.63045,-96.9807666666667,9.6,15.8,234,987.30,-16.7,75,0.37,0.0,1017.04,360.0
2019-03-04 09:40,50.6304483333333,-96.9807666666667,9.0,12.4,232,987.18,-16.7,75,0.37,0.0,1016.91,360.0
2019-03-04 09:50,50.630445,-96.9807616666667,8.7,11.0,228,986.99,-16.8,76,0.36,0.0,1016.71,360.0
2019-03-04 10:00,50.6304566666667,-96.9807716666667,9.5,12.8,226,986.84,-16.9,76,0.37,0.0,1016.54,270.0
2019-03-04 10:10,50.630445,-96.9807733333333,10.0,14.4,226,986.72,-16.9,76,0.37,0.0,1016.42,270.0
2019-03-04 10:20,50.6304466666667,-96.98077,9.3,12.6,226,986.60,-16.9,77,0.37,0.0,1016.30,270.0
2019-03-04 10:30,50.630445,-96.9807683333333,8.6,11.7,227,986.40,-17.0,77,0.37,0.0,1016.10,270.0
2019-03-04 10:40,50.6304416666667,-96.9807666666667,9.4,14.1,220,986.16,-17.1,77,0.36,0.0,1015.86,270.0
2019-03-04 10:50,50.63044,-96.9807666666667,10.4,14.4,224,985.92,-17.2,77,0.36,0.0,1015.61,270.0
2019-03-04 11:00,50.6304416666667,-96.9807666666667,10.0,14.6,227,985.79,-17.2,77,0.36,0.0,1015.47,130.6
2019-03-04 11:10,50.63044,-96.9807666666667,9.8,13.4,227,985.62,-17.2,77,0.36,0.0,1015.29,130.6
2019-03-04 11:20,50.6304416666667,-96.9807666666667,8.7,12.8,229,985.58,-17.2,77,0.36,0.0,1015.24,130.6
2019-03-04 11:30,50.6304416666667,-96.9807666666667,8.9,12.6,229,985.42,-17.3,77,0.36,0.0,1015.09,130.6
2019-03-04 11:40,50.63045,-96.980765,7.7,10.8,228,985.23,-17.4,77,0.36,0.0,1014.90,130.6
2019-03-04 11:50,50.630435,-96.980765,8.5,14.0,230,985.04,-17.5,77,0.36,0.0,1014.72,130.6
2019-03-04 12:00,50.6304383333333,-96.9807633333333,9.3,12.5,229,984.96,-17.5,77,0.36,0.0,1014.63,270.0
2019-03-04 12:10,50.63044,-96.9807633333333,9.0,12.5,228,984.74,-17.5,77,0.36,0.0,1014.40,270.0
2019-03-04 12:20,50.63044,-96.980765,8.9,12.6,229,984.60,-17.5,77,0.36,0.0,1014.27,270.0
2019-03-04 12:30,50.63044,-96.9807666666667,9.1,12.3,226,984.47,-17.5,78,0.36,0.0,1014.14,270.0
2019-03-04 12:40,50.6304433333333,-96.9807683333333,9.7,13.7,228,984.31,-17.3,78,0.36,0.0,1013.97,270.0
2019-03-04 12:50,50.6304616666667,-96.980775,8.7,13.3,232,984.17,-17.1,78,0.36,0.0,1013.81,270.0
2019-03-04 13:00,50.6304533333333,-96.9807666666667,8.4,13.3,236,984.08,-17.0,78,0.36,0.0,1013.72,90.0
2019-03-04 13:10,50.6304533333333,-96.9807666666667,8.0,11.8,237,983.89,-17.0,78,0.36,0.0,1013.52,90.0
2019-03-04 13:20,50.63045,-96.9807666666667,8.1,11.4,231,983.65,-17.0,78,0.36,0.0,1013.28,90.0
2019-03-04 13:30,50.63045,-96.980765,7.5,9.6,233,983.50,-16.9,78,0.36,0.0,1013.13,90.0
2019-03-04 13:40,50.63045,-96.9807633333333,7.2,10.3,232,983.36,-16.9,78,0.36,0.0,1012.98,90.0
2019-03-04 13:50,50.63045,-96.9807633333333,7.1,10.4,232,983.24,-16.7,78,0.36,0.0,1012.84,90.0
2019-03-04 14:00,50.6304283333333,-96.9807666666667,6.4,11.0,234,983.13,-16.5,78,0.36,0.0,1012.72,161.1
2019-03-04 14:10,50.630445,-96.98077,7.5,10.4,243,983.07,-16.2,78,0.36,0.0,1012.65,161.1
2019-03-04 14:20,50.6304516666667,-96.9807666666667,7.4,12.1,249,982.99,-15.9,77,0.36,0.0,1012.55,161.1
2019-03-04 14:30,50.63045,-96.9807616666667,9.6,15.0,254,982.88,-15.5,77,0.36,0.0,1012.40,161.1
2019-03-04 14:40,50.63045,-96.9807616666667,9.6,14.3,256,982.84,-15.1,75,0.35,0.0,1012.32,161.1
2019-03-04 14:50,50.6304483333333,-96.9807633333333,10.9,18.3,259,982.70,-14.8,75,0.36,0.0,1012.15,161.1
2019-03-04 15:00,50.6304483333333,-96.9807633333333,9.7,14.8,263,982.58,-14.6,74,0.36,0.0,1012.02,38.0
2019-03-04 15:10,50.6304466666667,-96.980765,9.0,14.4,264,982.52,-14.4,74,0.36,0.0,1011.94,38.0
2019-03-04 15:20,50.6304466666667,-96.9807666666667,9.4,14.4,267,982.50,-14.2,74,0.36,0.0,1011.91,38.0
2019-03-04 15:30,50.6304466666667,-96.9807666666667,9.2,14.8,261,982.56,-14.0,73,0.36,0.0,1011.96,38.0
2019-03-04 15:40,50.6304483333333,-96.9807666666667,9.7,15.8,262,982.48,-13.9,73,0.36,0.0,1011.86,38.0
2019-03-04 15:50,50.6304483333333,-96.9807666666667,8.4,13.4,262,982.48,-13.6,72,0.36,0.0,1011.83,38.0
2019-03-04 16:00,50.6304483333333,-96.9807666666667,8.6,14.7,262,982.47,-13.4,71,0.36,0.0,1011.79,142.0
2019-03-04 16:10,50.6304466666667,-96.9807666666667,8.2,13.5,261,982.39,-13.1,71,0.36,0.0,1011.67,142.0
2019-03-04 16:20,50.6304466666667,-96.9807666666667,8.1,12.5,265,982.38,-12.8,70,0.36,0.0,1011.62,142.0
2019-03-04 16:30,50.6304466666667,-96.9807683333333,8.4,12.3,262,982.41,-12.5,69,0.36,0.0,1011.62,142.0
2019-03-04 16:40,50.6304466666667,-96.9807683333333,8.8,13.6,261,982.38,-12.2,69,0.36,0.0,1011.55,142.0
2019-03-04 16:50,50.6304466666667,-96.9807683333333,8.6,13.6,262,982.34,-12.0,69,0.36,0.0,1011.48,142.0
2019-03-04 17:00,50.6304466666667,-96.98077,8.1,12.0,274,982.29,-11.5,69,0.36,0.0,1011.39,360.0
2019-03-04 17:10,50.6304466666667,-96.98077,8.8,14.0,285,982.18,-11.0,67,0.36,0.0,1011.25,360.0
2019-03-04 17:20,50.6304466666667,-96.98077,10.9,17.9,287,982.01,-10.9,66,0.36,0.0,1011.05,360.0
2019-03-04 17:30,50.6304466666667,-96.98077,11.8,20.0,290,981.99,-10.9,65,0.37,0.0,1011.02,360.0
2019-03-04 17:40,50.6304466666667,-96.98077,12.4,17.8,288,981.91,-10.8,64,0.37,0.0,1010.91,360.0
2019-03-04 17:50,50.630445,-96.98077,12.1,18.7,291,981.94,-10.7,64,0.37,0.0,1010.94,360.0
2019-03-04 18:00,50.630445,-96.98077,10.0,17.6,289,982.05,-10.4,63,0.37,0.0,1011.02,360.0
2019-03-04 18:10,50.63045,-96.9808333333333,10.6,16.3,283,982.03,-10.2,62,0.37,0.0,1010.96,360.0
2019-03-04 18:20,50.6304366666667,-96.9807683333333,11.4,17.7,290,981.98,-10.1,62,0.37,0.0,1010.89,360.0
2019-03-04 18:30,50.630445,-96.9807683333333,12.3,19.5,291,981.89,-10.0,62,0.37,0.0,1010.77,360.0
2019-03-04 18:40,50.6304383333333,-96.980745,11.4,19.2,292,981.89,-10.0,63,0.38,0.0,1010.76,360.0
2019-03-04 18:50,50.63044,-96.98076,11.2,16.6,293,981.94,-9.8,64,0.38,0.0,1010.77,360.0
2019-03-04 19:00,50.6304383333333,-96.9807633333333,10.5,16.6,290,981.92,-9.7,65,0.37,0.0,1010.73,142.0
2019-03-04 19:10,50.63045,-96.9807583333333,9.4,15.9,285,981.98,-9.3,64,0.38,0.0,1010.76,142.0
2019-03-04 19:20,50.63045,-96.9807616666667,9.5,15.6,279,982.00,-9.5,67,0.38,0.0,1010.79,142.0
2019-03-04 19:30,50.6304516666667,-96.980765,11.0,18.7,289,981.92,-9.7,69,0.38,0.0,1010.71,142.0
2019-03-04 19:40,50.6304533333333,-96.9807683333333,8.4,12.5,296,982.05,-9.8,73,0.38,0.0,1010.84,142.0
2019-03-04 19:50,50.63045,-96.980765,11.7,19.1,303,981.90,-9.5,62,0.39,0.0,1010.66,142.0
2019-03-04 20:00,50.6304833333333,-96.9807816666667,10.7,18.7,305,982.05,-9.6,63,0.39,0.0,1010.80,332.1
2019-03-04 20:10,50.6304683333333,-96.9807716666667,11.8,17.3,313,982.09,-9.2,65,0.39,0.0,1010.82,332.1
2019-03-04 20:20,50.630465,-96.98076,12.9,20.0,329,982.19,-10.2,77,0.39,0.0,1010.97,332.1
2019-03-04 20:30,50.630435,-96.980775,12.9,18.7,316,982.24,-10.8,80,0.40,0.0,1011.06,332.1
2019-03-04 20:40,50.63044,-96.9807783333333,12.9,20.0,311,982.29,-10.7,72,0.40,0.0,1011.09,332.1
2019-03-04 20:50,50.630445,-96.9807766666667,12.5,20.6,309,982.28,-10.3,61,0.40,0.0,1011.05,332.1
2019-03-04 21:00,50.6304433333333,-96.98078,12.0,22.4,308,982.40,-9.6,56,0.40,0.0,1011.12,270.0
2019-03-04 21:10,50.6304433333333,-96.9807783333333,14.3,22.4,307,982.31,-9.4,54,0.40,0.0,1011.02,270.0
2019-03-04 21:20,50.6304433333333,-96.980775,13.8,22.9,314,982.53,-9.5,53,0.41,0.0,1011.26,270.0
2019-03-04 21:30,50.6304433333333,-96.980775,14.3,20.7,307,982.65,-9.6,53,0.41,0.0,1011.40,270.0
2019-03-04 21:40,50.6304383333333,-96.980765,12.4,21.3,310,982.82,-9.5,51,0.41,0.0,1011.55,270.0
2019-03-04 21:50,50.6304316666667,-96.9807466666667,12.4,19.8,309,982.93,-9.5,53,0.41,0.0,1011.68,270.0
2019-03-04 22:00,50.6304333333333,-96.9807533333333,12.8,21.3,311,983.01,-9.7,53,0.41,0.0,1011.75,143.4
2019-03-04 22:10,50.6304366666667,-96.98076,12.5,18.8,318,983.10,-9.5,49,0.41,0.0,1011.87,143.4
2019-03-04 22:20,50.6304383333333,-96.980765,13.8,20.0,340,983.24,-9.5,54,0.41,0.0,1012.06,143.4
2019-03-04 22:30,50.63044,-96.980765,15.0,19.2,350,983.50,-10.3,70,0.41,0.0,1012.36,143.4
2019-03-04 22:40,50.63044,-96.980765,13.2,19.3,332,983.61,-10.8,74,0.42,0.0,1012.48,143.4
2019-03-04 22:50,50.6304383333333,-96.9807666666667,9.7,17.9,317,983.73,-10.6,69,0.42,0.0,1012.55,143.4
2019-03-04 23:00,50.6304383333333,-96.980765,12.0,21.2,311,983.63,-10.2,60,0.42,0.0,1012.42,151.2
2019-03-04 23:10,50.6304383333333,-96.980765,12.7,25.0,315,983.63,-10.1,54,0.42,0.0,1012.42,151.2
2019-03-04 23:20,50.6304383333333,-96.980765,12.9,18.5,314,983.84,-10.3,51,0.42,0.0,1012.65,151.2
2019-03-04 23:30,50.6304383333333,-96.9807633333333,11.7,16.8,311,984.01,-10.5,50,0.42,0.0,1012.84,151.2
2019-03-04 23:40,50.6304383333333,-96.980765,11.7,18.6,310,984.13,-10.8,52,0.43,0.0,1012.97,151.2
